BSAT-4B

Last updated on Mon Sep 07 2026 00:03:01 GMT+0000 (Coordinated Universal Time)

1 46112U 20056A 26249.59433993 -.00000366 00000+0 00000+0 0 9999 2 46112 0.0372 223.5169 0004092 293.3839 152.5725 1.00269661 22202
UTC large
Height (km)
Speed (km/s)
/
Latitude / Longitude
Inclination (degrees)
Orbital Period (minutes)
Azimuth
Elevation
Range (km)
Doppler Factor

Next 0 passes for location: London (51.5072 / 0.1276)

No passes found over London.
BSAT-4B